User: anonymous   Login
Location: Fort Wayne
(41.1310°N, 85.1290°W)
Time: 15:06:47
(UTC-05:00)
Language:

Gbstr 26 Del rocket - Orbit

View from above orbital plane
View from above orbital plane
View from above satellite
View from above satellite

Ground track
Ground track

The orbit data is extracted from the following two-line orbital elements,

1 25876U 99041E   14354.24583772  .00001248  00000-0  25551-3 0  5460
2 25876 051.7689 304.3814 0537147 257.8661 247.6794 14.02749495786826
Epoch (UTC): 20 December 2014 05:54:00
Eccentricity: 0.0537147
inclination: 51.7689°
perigee height: 494 km
apogee height: 1274 km
right ascension of ascending node: 304.3814°
argument of perigee: 257.8661°
revolutions per day: 14.02749495
mean anomaly at epoch: 247.6794°
orbit number at epoch: 78682

The dashed part of the orbit path shows where the satellite is in the earth's shadow,  

DLR